Tracking 17886 objects as of 8-December-2016
HD Live streaming from Space Station
objects crossing your sky now

SYRACUSE 3B

Track SYRACUSE 3B now!
SYRACUSE 3B is classified as:


NORAD ID: 29273
Int'l Code: 2006-033B
Perigee: 35,846.5 km
Apogee: 35,893.7 km
Inclination: 0.0 °
Period: 1,440.0 minutes
Semi major axis: 42241 km
RCS: 25.7711 m2 (large)
Launch date: August 11, 2006
Source: France (FR)
Launch site: FRENCH GUIANA (FRGUI)

Syracuse 3B is a French military geostationary satellite. It carries four spot beams in SHF frequencies and two spot beams in EHF frequencies.
Your satellite tracking list
Your tracking list is empty





NASA's NSSDC Master Catalog

Two Line Element Set (TLE):
1 29273U 06033B   16343.20803898 -.00000038  00000-0  00000+0 0  9991
2 29273   0.0095 327.3489 0005590 300.2202 239.5379  1.00272829 37877
Source of the keplerian elements: AFSPC